EW6651 Weather Reports


time (UTC)temp
F
wind
direction
speed
knots
gust
knots
rain 1hr
in
rain 24hr
in
rain mn
in
humidity
%
barometer
mb
20260507060003 47 321 0.0 2.6 0.00 0.16 0.00 93 1006.6
20260507054500 47 297 0.0 1.7 0.00 0.16 0.00 95 1006.8
20260507053000 47 304 0.0 0.9 0.00 0.16 0.00 95 1006.6
20260507051604 48 306 0.0 0.0 0.00 0.00 0.00 95 1006.9
20260507044559 48 316 0.0 0.0 0.00 0.16 0.00 95 1006.7
20260507043056 48 297 0.0 1.7 0.00 0.16 0.00 95 1006.4
20260507041552 49 302 0.9 2.6 0.00 0.16 0.00 95 1006.7
20260507040049 49 300 0.0 1.7 0.01 0.16 0.00 96 1006.7
20260507034548 50 305 0.0 0.9 0.01 0.16 0.16 96 1006.5
20260507033046 51 310 0.0 1.7 0.03 0.16 0.16 95 1006.3
20260507031541 52 326 0.0 2.6 0.03 0.16 0.16 95 1005.9
20260507030042 53 314 0.0 1.7 0.02 0.15 0.15 95 1005.9
20260507024536 54 40 0.9 3.5 0.02 0.15 0.15 96 1006.2
20260507023032 55 326 0.0 3.5 0.00 0.13 0.13 95 1006.1
20260507021530 56 318 0.0 3.5 0.02 0.13 0.13 95 1005.5
20260507020038 56 317 0.0 2.6 0.02 0.13 0.13 95 1005.4
20260507014525 58 340 0.0 2.6 0.02 0.13 0.13 96 1005.2
20260507013040 58 284 0.0 4.3 0.02 0.13 0.13 96 1004.8
20260507011524 59 276 1.7 7.0 0.00 0.11 0.11 95 1004.8
20260507010031 59 277 0.0 7.8 0.00 0.11 0.11 95 1004.8
20260507004523 58 220 0.9 5.2 0.00 0.11 0.11 96 1004.7
20260507003023 58 269 0.9 4.3 0.00 0.11 0.11 96 1004.3
20260507001528 58 235 0.0 5.2 0.00 0.11 0.11 96 1004.4
20260507000022 58 188 1.7 6.1 0.00 0.11 0.11 96 1004.3
20260506234528 58 238 1.7 5.2 0.00 0.11 0.11 96 1004.1
20260506233019 58 188 0.9 3.5 0.00 0.11 0.11 96 1004.1
20260506231517 58 129 0.9 5.2 0.00 0.11 0.11 96 1004.2
20260506230021 58 196 1.7 4.3 0.00 0.11 0.11 96 1004.2
20260506224517 58 218 0.9 3.5 0.00 0.11 0.11 96 1004.3
20260506223014 58 250 0.9 6.1 0.00 0.11 0.11 95 1004.4
20260506221513 59 202 2.6 6.1 0.00 0.11 0.11 95 1004.4
20260506220021 59 215 1.7 7.8 0.00 0.11 0.11 95 1004.5
20260506214512 59 204 1.7 6.1 0.01 0.11 0.11 95 1004.5
20260506213011 59 214 2.6 6.1 0.01 0.11 0.11 95 1004.4
20260506211516 60 161 2.6 7.8 0.02 0.11 0.11 95 1004.5
20260506210017 60 269 2.6 8.7 0.01 0.10 0.10 94 1004.5
20260506204509 60 141 1.7 10.4 0.03 0.10 0.10 94 1004.7
20260506203007 60 211 2.6 7.8 0.04 0.10 0.10 94 1004.7
20260506201507 60 151 0.9 8.7 0.03 0.09 0.09 94 1005.0
20260506200010 61 250 2.6 7.0 0.03 0.09 0.09 93 1005.0
20260506194503 61 190 3.5 7.0 0.01 0.07 0.07 92 1005.2
20260506193003 61 119 1.7 7.8 0.01 0.06 0.06 92 1005.4
20260506191502 61 217 1.7 7.0 0.01 0.06 0.06 91 1005.2
20260506190001 61 127 0.9 7.0 0.03 0.06 0.06 91 1005.0
20260506184617 61 213 1.7 6.1 0.05 0.06 0.06 90 1005.4
20260506183056 61 143 0.0 4.3 0.05 0.05 0.05 90 1005.8
20260506181554 61 261 0.9 3.5 0.05 0.05 0.05 89 1006.1
20260506180054 62 192 0.0 2.6 0.04 0.04 0.04 88 1006.1
20260506174551 63 232 0.0 2.6 0.01 0.01 0.01 83 1006.6
20260506173104 65 257 0.9 7.0 0.00 0.00 0.00 78 1006.5
20260506171554 66 203 2.6 7.0 0.00 0.00 0.00 72 1006.3
20260506170058 68 183 4.3 11.3 0.00 0.00 0.00 69 1006.3
20260506164608 68 189 3.5 14.8 0.00 0.00 0.00 67 1006.3
20260506163047 69 194 2.6 12.2 0.00 0.00 0.00 67 1006.4
20260506161548 69 243 0.9 12.2 0.00 0.00 0.00 67 1006.6
20260506160050 69 264 2.6 6.1 0.00 0.00 0.00 67 1006.7
20260506154550 68 248 0.9 4.3 0.00 0.00 0.00 72 1007.1
20260506153039 68 259 2.6 8.7 0.00 0.00 0.00 68 1007.2
20260506151539 68 286 1.7 11.3 0.00 0.00 0.00 70 1007.5
20260506150038 68 165 0.0 6.1 0.00 0.00 0.00 72 1007.6
20260506144537 67 262 1.7 6.1 0.00 0.00 0.00 72 1007.2
20260506143038 68 102 3.5 10.4 0.00 0.00 0.00 71 1007.5
20260506141539 67 136 3.5 7.8 0.00 0.00 0.00 73 1007.4
20260506140031 66 216 0.9 6.1 0.00 0.00 0.00 77 1007.3
20260506134527 65 111 1.7 4.3 0.00 0.00 0.00 77 1007.2
20260506133025 64 135 1.7 5.2 0.00 0.00 0.00 78 1007.7
20260506131523 64 184 1.7 3.5 0.00 0.00 0.00 79 1007.6
20260506130021 63 229 1.7 5.2 0.00 0.00 0.00 80 1007.8
20260506124619 62 273 0.9 5.2 0.00 0.00 0.00 81 1007.9
20260506123021 61 254 1.7 5.2 0.00 0.00 0.00 82 1007.9
20260506121518 60 168 0.0 2.6 0.00 0.00 0.00 83 1007.8
20260506120024 60 57 0.0 3.5 0.00 0.00 0.00 83 1008.1
20260506114517 59 205 0.0 2.6 0.00 0.00 0.00 85 1008.1
20260506113016 58 198 0.0 2.6 0.00 0.00 0.00 85 1008.2
20260506111515 58 197 0.9 3.5 0.00 0.00 0.00 85 1008.3
20260506110016 58 256 0.9 4.3 0.00 0.00 0.00 85 1008.2
20260506104513 57 211 0.0 2.6 0.00 0.00 0.00 86 1008.3
20260506103025 57 214 0.0 2.6 0.00 0.00 0.00 85 1008.3
20260506101512 57 200 0.0 4.3 0.00 0.00 0.00 84 1008.1
20260506100010 57 203 0.9 6.1 0.00 0.00 0.00 84 1008.2
20260506094520 57 178 1.7 6.1 0.00 0.00 0.00 83 1008.3
20260506093007 57 205 1.7 5.2 0.00 0.00 0.00 83 1008.1
20260506091506 57 144 0.9 2.6 0.00 0.00 0.00 82 1007.9
20260506090006 58 207 0.0 1.7 0.00 0.00 0.00 80 1008.0
20260506084505 58 225 0.0 2.6 0.00 0.00 0.00 80 1008.1
20260506083004 58 192 0.0 4.3 0.00 0.00 0.00 80 1008.2
20260506081505 57 138 0.0 2.6 0.00 0.00 0.00 81 1008.1
20260506073104 59 195 0.0 0.9 0.00 0.00 0.00 77 1008.1
20260506071555 59 215 0.0 0.9 0.00 0.00 0.00 75 1008.0
20260506070115 60 207 0.0 2.6 0.00 0.00 0.00 74 1007.9
20260506061651 60 213 0.0 0.9 0.00 0.00 0.00 74 1007.9